Regional Weather Roundup
Issued by NWS

Home | Current Version | Previous Version | Graphics & Text | Print | Product List | Glossary On
Versions: 1 2 3 4 5 6 7 8 9 10 11 12 13 14 15 16 17 18 19 20 21 22 23 24 25 26 27 28 29 30 31 32 33 34 35 36 37 38 39 40 41 42 43 44 45 46 47 48 49 50
000
ASUS43 KLMK 260502
RWRKY
KENTUCKY REGIONAL WEATHER ROUNDUP
NATIONAL WEATHER SERVICE LOUISVILLE KY
1200 AM EST FRI DEC 26 2014

NOTE "FAIR" INDICATES FEW OR NO CLOUDS BELOW 12,000 FEET
WITH NO SIGNIFICANT WEATHER AND/OR OBSTRUCTIONS TO VISIBILITY.

KYZ001>023-026-027-061>063-070>075-260600-
WESTERN AND SOUTH CENTRAL KENTUCKY

CITY           SKY/WX    TMP DP  RH WIND       PRES   REMARKS
PADUCAH        MOCLDY    43  34  70 VRB7      30.13R
HENDERSON      CLEAR     39  32  75 S12       30.13F WCI  32
OWENSBORO      PTCLDY    39  34  82 S9        30.16S WCI  33
HOPKINSVILLE   CLEAR     39  33  81 SE5       30.18S
BOWLING GREEN  CLEAR     31  28  89 CALM      30.21R
GLASGOW        NOT AVBL
$$

KYZ024-025-028>034-038-045-046-053-260600-
NORTH CENTRAL KENTUCKY

CITY           SKY/WX    TMP DP  RH WIND       PRES   REMARKS
LOUISVILLE/SDF CLEAR     35  31  85 SE5       30.19R WCI  31
LOUISVILLE/LOU CLEAR     36  31  82 S3        30.19R
FORT KNOX      CLEAR     33  30  89 S9        30.17S WCI  25
$$

KYZ035>037-039>044-047>052-055>060-089>105-260600-
NORTHEAST KENTUCKY

CITY           SKY/WX    TMP DP  RH WIND       PRES   REMARKS
LEXINGTON      CLEAR     33  30  88 SE8       30.19S WCI  26
COVINGTON      CLEAR     33  27  78 S3        30.17S
FRANKFORT      CLEAR     31  28  89 CALM      30.19R
$$

KYZ054-064>069-076>088-106>120-260600-
SOUTHEAST KENTUCKY

CITY           SKY/WX    TMP DP  RH WIND       PRES   REMARKS
JACKSON        CLEAR     37  30  75 SE3       30.19F
LONDON         CLEAR     31  26  82 CALM      30.21R
SOMERSET       NOT AVBL
MIDDLESBORO    CLEAR     30  29  99 CALM      30.25R
MONTICELLO     CLEAR     28  27  96 CALM      30.24R
$$



USA.gov is the U.S. government's official web portal to all federal, state and local government web resources and services.